Weather History for KBBW - December, 2012

Change the Weather History Date:

Wednesday, December 5, 2012

  Actual Average Record
Temperature  
Mean Temperature 43 °F 27 °F  
Max Temperature 57 °F 39 °F 72 °F (1939)
Min Temperature 28 °F 15 °F -13 °F (2011)
Degree Days  
Heating Degree Days 22 38  
Month to date heating degree days 108 187  
Cooling Degree Days 0 0  
Month to date cooling degree days 0 0  
Year to date cooling degree days 1077 768  
Moisture  
Dew Point 21 °F    
Average Humidity 43    
Maximum Humidity 57    
Minimum Humidity 28    
Precipitation  
Precipitation 0.00 in 0.03 in 2.41 in (1913)
Sea Level Pressure  
Sea Level Pressure 29.97 in    
Wind  
Wind Speed 11 mph (South)    
Max Wind Speed 26 mph    
Max Gust Speed 31 mph    
Visibility 10 miles    
Events      
T = Trace of Precipitation, MM = Missing Value Source: NWS Daily Summary

Daily Weather History Graph

Daily Weather History Graph

Search for Another Location

Airport or City:

Trip Planner

Search our weather history database for the weather conditions in past years. The results will help you decide how hot, cold, wet, or windy it might be!

Date:

Astronomy

Dec. 05, 2012 Rise Set
Actual Time 7:49 AM CST 5:08 PM CST
Civil Twilight 7:18 AM CST 5:39 PM CST
Nautical Twilight 6:44 AM CST 6:14 PM CST
Astronomical Twilight 6:10 AM CST 6:48 PM CST
Moon No Moon Rise 12:11 PM CST (12/5)
Length of Visible Light 10h 21m
Length of Day
9h 19m
Waning Gibbous, 59% of the Moon is Illuminated
Dec 5
Waning Gibbous
Dec 6
Last Quarter
Dec 13
New
Dec 19
First Quarter
Dec 28
Full

Hourly Weather History & Observations

Time (CST) Temp. Windchill Dew Point Humidity Pressure Visibility Wind Dir Wind Speed Gust Speed Precip Events Conditions
12:53 AM 33.1 °F - 15.1 °F 48% 30.19 in 10.0 mi Calm Calm - N/A   Clear
1:53 AM 30.9 °F 26.2 °F 15.1 °F 52% 30.18 in 10.0 mi ESE 4.6 mph - N/A   Clear
2:53 AM 32.0 °F 28.7 °F 15.1 °F 50% 30.17 in 10.0 mi South 3.5 mph - N/A   Clear
3:53 AM 35.1 °F 31.0 °F 15.1 °F 44% 30.15 in 10.0 mi SSW 4.6 mph - N/A   Clear
4:53 AM 34.0 °F 29.8 °F 16.0 °F 48% 30.13 in 10.0 mi SSE 4.6 mph - N/A   Clear
5:53 AM 34.0 °F 29.8 °F 15.1 °F 46% 30.15 in 10.0 mi South 4.6 mph - N/A   Clear
6:53 AM 32.0 °F - 16.0 °F 52% 30.14 in 10.0 mi Calm Calm - N/A   Clear
8:53 AM 36.0 °F 29.6 °F 17.1 °F 46% 30.11 in 10.0 mi South 8.1 mph - N/A   Clear
9:53 AM 39.0 °F 32.3 °F 18.0 °F 43% 30.09 in 10.0 mi South 10.4 mph - N/A   Clear
10:53 AM 45.0 °F 39.7 °F 21.0 °F 39% 30.05 in 10.0 mi South 10.4 mph 24.2 mph N/A   Clear
11:53 AM 51.1 °F - 21.9 °F 32% 29.99 in 10.0 mi South 10.4 mph - N/A   Clear
12:53 PM 53.6 °F - 23.0 °F 30% 29.90 in 10.0 mi South 19.6 mph 24.2 mph N/A   Clear
1:53 PM 53.1 °F - 24.1 °F 32% 29.90 in 10.0 mi South 23.0 mph 31.1 mph N/A   Clear
2:53 PM 55.9 °F - 24.1 °F 29% 29.86 in 10.0 mi South 21.9 mph - N/A   Clear
3:53 PM 57.0 °F - 25.0 °F 29% 29.84 in 10.0 mi South 18.4 mph 27.6 mph N/A   Clear
4:53 PM 55.9 °F - 24.1 °F 29% 29.81 in 10.0 mi South 18.4 mph 26.5 mph N/A   Clear
5:53 PM 54.0 °F - 24.1 °F 31% 29.82 in 10.0 mi South 12.7 mph 24.2 mph N/A   Clear
6:53 PM 54.0 °F - 25.0 °F 33% 29.81 in 10.0 mi South 15.0 mph 25.3 mph N/A   Overcast
7:53 PM 54.0 °F - 24.1 °F 31% 29.81 in 10.0 mi SSE 10.4 mph - N/A   Overcast
8:53 PM 53.1 °F - 24.1 °F 32% 29.81 in 10.0 mi South 16.1 mph 26.5 mph N/A   Mostly Cloudy
9:53 PM 52.0 °F - 24.1 °F 34% 29.81 in 10.0 mi South 9.2 mph - N/A   Clear
10:53 PM 53.1 °F - 25.0 °F 34% 29.78 in 10.0 mi SW 10.4 mph - N/A   Scattered Clouds
11:53 PM 51.1 °F - 25.0 °F 36% 29.78 in 10.0 mi SW 9.2 mph - N/A   Partly Cloudy